Regional Weather Roundup
Issued by NWS

Home | Current Version | Previous Version | Text Only | Print | Product List | Glossary On
Versions: 1 2 3 4 5 6 7 8 9 10 11 12 13 14 15 16 17 18 19 20 21 22 23 24 25 26 27 28 29 30 31 32 33 34 35 36 37 38 39 40 41 42 43 44 45 46 47 48 49 50
000
ASUS45 KBOU 280807
RWRCO

WEATHER ROUNDUP FOR COLORADO
NATIONAL WEATHER SERVICE DENVER/BOULDER CO
100 AM MST SAT FEB 28 2015

NOTE: "FAIR" INDICATES FEW OR NO CLOUDS BELOW 12000 FEET WITH NO
SIGNIFICANT WEATHER AND/OR OBSTRUCTIONS TO VISIBILITY.

COZ001>005-013-030-031-280900-
...NORTHWEST COLORADO...

CITY           SKY/WX    TMP DP  RH WIND       PRES   REMARKS
CRAIG          NOT AVBL
HAYDEN         CLEAR     16   5  62 E10       29.76S WCI   3
MEEKER         CLEAR     14   8  77 E3        29.77S
MOUNT WERNER   NOT AVBL
STEAMBOAT SPGS CLEAR      8   2  77 NW6       29.78S WCI  -3
WALDEN         PTCLDY    -6  -9  84 SE5       29.75S WCI -17
$$

COZ006>008-011-280900-
...WEST CENTRAL VALLEYS...

CITY           SKY/WX    TMP DP  RH WIND       PRES   REMARKS
GRAND JUNCTION CLEAR     26  22  84 E12       29.77R WCI  16
MONTROSE       PTCLDY    17  14  88 SE6       29.80S WCI   9
EAGLE          CLOUDY    21  19  93 E6        29.81F WCI  14
RIFLE          PTCLDY    23  17  78 CALM      29.79S
DELTA          PTCLDY    26  24  91 CALM      29.81R
NUCLA          PTCLDY    27  21  80 SE6       29.81S WCI  20
$$

COZ017>023-064>068-280900-
...SOUTHWEST COLORADO...

CITY           SKY/WX    TMP DP  RH WIND       PRES   REMARKS
DURANGO        LGT SNOW  26  24  92 E3        29.78S FOG
CORTEZ         MOCLDY    28  26  92 CALM      29.78R
PAGOSA SPRINGS LGT SNOW  24  24  99 CALM      29.78S
TELLURIDE      PTCLDY    20  15  81 SE6       29.74S WCI  13
WOLF CREEK PAS LGT SNOW   9   9 100 SW10G17   29.74F WCI  -6
$$

COZ009-010-012-014-032>034-037-058>063-280900-
...CENTRAL COLORADO...

CITY           SKY/WX    TMP DP  RH WIND       PRES   REMARKS
ASPEN          CLEAR      9   3  77 S7        29.74F WCI  -2
BUENA VISTA    LGT SNOW  11   7  85 CALM      29.80F
COPPER MTN     PTCLDY    10   3  72 S7        29.68S WCI   0
BERTHOUD PASS  FAIR       1  -4  78 W13       29.67F WCI -16
COTTONWOOD PAS FLURRIES  18  12  79 CALM      29.73F
GUNNISON       PTCLDY    12   3  67 N5        29.79F WCI   4
KREMMLING      CLOUDY    14   9  79 CALM      29.79S
LEADVILLE      CLOUDY     6   3  87 CALM      29.71F
SALIDA         CLOUDY    10   7  89 CALM      29.89F
SUNLIGHT       PTCLDY    12  10  92 CALM        N/A
WILKERSON PASS CLOUDY     9   5  85 SW8       29.71S FOG     WCI  -4
$$

COZ069>075-280900-
...SAN LUIS VALLEY/SANGRE DE CRISTO MOUNTAINS...

CITY           SKY/WX    TMP DP  RH WIND       PRES   REMARKS
ALAMOSA        CLOUDY    13  10  88 S3        29.79S
LA VETA PASS   LGT SNOW  14  12  92 MISG      29.72F
SAGUACHE       CLOUDY    19  16  86 CALM      29.79F
$$

COZ035-036-038>040-280900-
...NORTHERN COLORADO FRONT RANGE...

CITY           SKY/WX    TMP DP  RH WIND       PRES   REMARKS
DENVER INTL AP PTCLDY     9   4  80 S5        29.88F WCI   1
DMNS CITY PARK   N/A      7   5  90 N2        29.89S
AURORA         PTCLDY     6   1  79 S5        29.86F WCI  -3
FRONT RANGE AP NOT AVBL
ERIE MUNI ARPT PTCLDY    -1  -3  90 CALM      29.90F
BOULDER MUN AP PTCLDY     9   5  85 CALM      29.89S
CENTENNIAL     PTCLDY     4   0  83 S5        29.84F WCI  -5
BROOMFIELD     PTCLDY    10   5  79 CALM      29.87S
FORT COLLINS   PTCLDY     7   1  78 CALM      29.92S
LONGMONT       PTCLDY     0  -4  82 CALM      29.93F
$$

COZ041-046-047-076>085-087-088-280900-
...PIKES PEAK/PALMER DIVIDE AND SOUTHERN FOOTHILLS...

CITY           SKY/WX    TMP DP  RH WIND       PRES   REMARKS
COLO. SPRINGS  CLOUDY     6   3  87 CALM      29.88F
A. F. ACADEMY  FLURRIES   5   2  85 CALM      29.84F
ELLICOTT       NOT AVBL
FALCON         LGT SNOW   4   1  86 SW7       29.84S WCI  -8
FORT CARSON    CLOUDY     4   1  88 SE2       29.89S
LIMON          CLOUDY     4   2  91 S12       29.93F WCI -12
MONUMENT HILL  MOCLDY     1  -2  85 S9        29.77F WCI -14
TRINIDAD       MOCLDY    10   4  76 N6        29.89F WCI   0
$$

COZ042>045-048>051-090-091-280900-
...NORTHEAST COLORADO...

CITY           SKY/WX    TMP DP  RH WIND       PRES   REMARKS
GREELEY ARPT   PTCLDY     7  -2  66 CALM      29.92F
AKRON          CLEAR      7   3  84 S12       29.96F WCI  -8
BURLINGTON     CLOUDY    10   5  80 S15       30.06F HAZE    WCI  -7
WRAY           CLOUDY    14   9  81 S10       30.09F WCI   1
STERLING       MOCLDY    10   5  79 SW6       30.02S WCI   1
HOLYOKE        NOT AVBL
FORT MORGAN    MOCLDY     8   3  79 S10       29.97F WCI  -6
$$

COZ086-089-092>099-280900-
...SOUTHEAST COLORADO...

CITY           SKY/WX    TMP DP  RH WIND       PRES   REMARKS
PUEBLO         LGT SNOW  10   7  87 E5        29.98F FOG     WCI   2
LA JUNTA       MOCLDY    12   7  80 E6        29.99F WCI   3
LAMAR          CLOUDY    14  10  84 SE13      30.05F WCI   0
SPRINGFIELD      N/A     12   9  87 S17       30.03F WCI  -5
$$



USA.gov is the U.S. government's official web portal to all federal, state and local government web resources and services.